Tracking 19720 objects as of 27-Jun-2019
HD Live streaming from Space Station
objects crossing your sky now

CZ-3B R/B

Track CZ-3B R/B now!
10-day predictions


NORAD ID: 43921
Int'l Code: 2019-001B
Perigee: 119.7 km
Apogee: 5,445.6 km
Inclination: 26.8 °
Period: 145.3 minutes
Semi major axis: 9153 km
RCS: Unknown
Launch date: January 10, 2019
Source: People's Republic of China (PRC)
Launch site: Xichang Space Center, China (XSC)

Note: This is a ROCKET BODY
aabbcc
Your satellite tracking list
Your tracking list is empty




NASA's NSSDC Master Catalog

Two Line Element Set (TLE):
1 43921U 19001B   19177.43510788  .16813748 -57872-5  14667-2 0  9990
2 43921  26.8085 237.2569 2909162  31.7529  22.9428  9.91319190  5903
Source of the keplerian elements: AFSPC